Weather History for Biloxi, MS

Change the Weather History Date:

Tuesday, January 1, 2013

  Actual Average Record
Temperature  
Mean Temperature 62 °F -  
Max Temperature 69 °F 61 °F 75 °F (1975)
Min Temperature 55 °F 44 °F 20 °F (1964)
Degree Days  
Heating Degree Days 3    
Growing Degree Days 12 (Base 50)    
Moisture  
Dew Point 60 °F    
Average Humidity 93    
Maximum Humidity 100    
Minimum Humidity 81    
Precipitation  
Precipitation 0.08 in - - ()
Sea Level Pressure  
Sea Level Pressure 30.01 in    
Wind  
Wind Speed 8 mph (SW)    
Max Wind Speed 18 mph    
Max Gust Speed 23 mph    
Visibility 8 miles    
Events Rain    
Averages and records for this station are not official NWS values.
T = Trace of Precipitation, MM = Missing Value Source: NWS Daily Summary

Daily Weather History Graph

Daily Weather History Graph

Search for Another Location

Airport:

Trip Planner

Search our weather history database for the weather conditions in past years. The results will help you decide how hot, cold, wet, or windy it might be!

Date:

Astronomy

Jan. 01, 2013 Rise Set
Actual Time 6:52 AM CST 5:06 PM CST
Civil Twilight 6:26 AM CST 5:32 PM CST
Nautical Twilight 5:56 AM CST 6:02 PM CST
Astronomical Twilight 5:27 AM CST 6:32 PM CST
Moon 9:17 PM CST (1/1) 9:22 AM CST (1/1)
Length of Visible Light 11h 06m
Length of Day
10h 13m
Waning Gibbous, 83% of the Moon is Illuminated
Jan 1
Waning Gibbous
Jan 4
Last Quarter
Jan 11
New
Jan 18
First Quarter
Jan 26
Full

Hourly Weather History & Observations

Time (CST) Temp. Dew Point Humidity Pressure Visibility Wind Dir Wind Speed Gust Speed Precip Events Conditions
12:55 AM 59.7 °F 58.3 °F 95% 30.07 in 10.0 mi SE 8.1 mph - N/A   Clear
1:17 AM 60.8 °F 59.0 °F 94% 30.06 in 9.0 mi SE 9.2 mph - N/A   Clear
1:55 AM 62.2 °F 61.2 °F 96% 30.05 in 7.0 mi SSE 8.1 mph - N/A   Clear
2:26 AM 60.8 °F 60.8 °F 100% 30.05 in 9.0 mi SSE 6.9 mph - N/A   Clear
2:55 AM 60.8 °F 59.4 °F 95% 30.04 in 10.0 mi SSE 6.9 mph - N/A   Clear
3:55 AM 60.6 °F 59.2 °F 95% 30.03 in 10.0 mi South 6.9 mph - N/A   Clear
4:24 AM 60.8 °F 59.0 °F 94% 30.03 in 9.0 mi South 5.8 mph - N/A   Clear
4:39 AM 59.0 °F 59.0 °F 100% 30.02 in 9.0 mi South 6.9 mph - N/A   Clear
4:51 AM 60.8 °F 59.0 °F 94% 30.02 in 9.0 mi South 5.8 mph - N/A   Clear
4:55 AM 60.3 °F 59.0 °F 96% 30.02 in 9.0 mi SSW 5.8 mph - N/A   Clear
4:59 AM 60.8 °F 59.0 °F 94% 30.02 in 9.0 mi South 6.9 mph - N/A   Clear
5:11 AM 59.0 °F 59.0 °F 100% 30.02 in 9.0 mi South 4.6 mph - N/A   Clear
5:53 AM 60.8 °F 59.0 °F 94% 30.01 in 9.0 mi South 8.1 mph - N/A   Clear
5:55 AM 59.9 °F 58.8 °F 96% 30.01 in 9.0 mi South 6.9 mph - N/A   Clear
6:05 AM 60.8 °F 59.0 °F 94% 30.01 in 9.0 mi South 5.8 mph - N/A   Clear
6:09 AM 60.8 °F 59.0 °F 94% 30.01 in 9.0 mi South 6.9 mph - N/A   Clear
6:55 AM 61.5 °F 60.1 °F 95% 30.02 in 8.0 mi South 6.9 mph - N/A   Clear
7:55 AM 62.2 °F 61.0 °F 96% 30.02 in 7.0 mi South 9.2 mph - N/A   Clear
8:53 AM 64.4 °F 62.6 °F 94% 30.03 in 9.0 mi South 11.5 mph - N/A   Mostly Cloudy
8:55 AM 64.0 °F 62.1 °F 93% 30.03 in 10.0 mi South 12.7 mph - N/A   Mostly Cloudy
9:02 AM 64.4 °F 62.6 °F 94% 30.04 in 10.0 mi South 13.8 mph - N/A   Scattered Clouds
9:55 AM 66.0 °F 62.4 °F 88% 30.04 in 10.0 mi South 11.5 mph - N/A   Scattered Clouds
10:16 AM 66.2 °F 62.6 °F 88% 30.04 in 10.0 mi South 11.5 mph - N/A   Mostly Cloudy
10:32 AM 66.2 °F 62.6 °F 88% 30.04 in 10.0 mi South 11.5 mph - N/A   Mostly Cloudy
10:38 AM 66.2 °F 62.6 °F 88% 30.04 in 10.0 mi South 9.2 mph - N/A   Overcast
10:39 AM 66.2 °F 62.6 °F 88% 30.04 in 10.0 mi South 9.2 mph - N/A   Overcast
10:40 AM 66.2 °F 62.6 °F 88% 30.04 in 10.0 mi South 9.2 mph - N/A   Overcast
10:41 AM 66.2 °F 62.6 °F 88% 30.04 in 10.0 mi South 10.4 mph - N/A   Overcast
10:55 AM 67.6 °F 62.2 °F 83% 30.03 in 10.0 mi South 11.5 mph - N/A   Mostly Cloudy
11:26 AM 68.0 °F 62.6 °F 83% 30.01 in 10.0 mi South 11.5 mph - N/A   Mostly Cloudy
11:35 AM 68.0 °F 62.6 °F 83% 30.00 in 10.0 mi South 11.5 mph - N/A   Overcast
11:55 AM 68.9 °F 63.0 °F 81% 29.99 in 10.0 mi SSW 11.5 mph - N/A   Overcast
12:13 PM 68.0 °F 62.6 °F 83% 29.98 in 10.0 mi SSW 9.2 mph - N/A   Mostly Cloudy
12:55 PM 69.1 °F 63.5 °F 82% 29.96 in 10.0 mi SSW 8.1 mph - N/A   Mostly Cloudy
1:26 PM 68.0 °F 62.6 °F 83% 29.95 in 10.0 mi SSW 8.1 mph - N/A   Mostly Cloudy
1:55 PM 67.5 °F 62.6 °F 84% 29.95 in 10.0 mi SW 6.9 mph - N/A   Overcast
1:56 PM 68.0 °F 62.6 °F 83% 29.95 in 10.0 mi SW 8.1 mph - N/A   Overcast
1:58 PM 68.0 °F 62.6 °F 83% 29.95 in 10.0 mi SW 9.2 mph - N/A   Overcast
2:55 PM 66.6 °F 63.3 °F 89% 29.94 in 10.0 mi SW 6.9 mph - N/A   Mostly Cloudy
3:55 PM 65.1 °F 62.4 °F 91% 29.94 in 10.0 mi SSW 8.1 mph - N/A   Clear
4:05 PM 64.4 °F 62.6 °F 94% 29.94 in 10.0 mi SSW 6.9 mph - N/A   Mostly Cloudy
4:30 PM 64.4 °F 62.6 °F 94% 29.94 in 10.0 mi South 8.1 mph - N/A   Mostly Cloudy
4:55 PM 64.0 °F 62.1 °F 93% 29.94 in 10.0 mi South 6.9 mph - N/A   Scattered Clouds
5:55 PM 63.0 °F 61.3 °F 94% 29.95 in 10.0 mi South 5.8 mph - N/A   Overcast
6:14 PM 62.6 °F 60.8 °F 94% 29.96 in 9.0 mi SSW 6.9 mph - N/A   Overcast
6:26 PM 62.6 °F 60.8 °F 94% 29.96 in 9.0 mi SW 6.9 mph - N/A   Overcast
6:30 PM 62.6 °F 60.8 °F 94% 29.98 in 9.0 mi NW 10.4 mph - N/A Rain Light Rain
6:37 PM 62.6 °F 60.8 °F 94% 29.98 in 7.0 mi WNW 5.8 mph - N/A Rain Light Rain
6:38 PM 62.6 °F 60.8 °F 94% 29.98 in 6.0 mi WNW 5.8 mph - N/A Rain Light Rain
6:39 PM 62.6 °F 60.8 °F 94% 29.98 in 5.0 mi WNW 4.6 mph - N/A Rain Light Rain
6:42 PM 62.6 °F 60.8 °F 94% 29.98 in 4.0 mi WNW 6.9 mph - N/A Rain Light Rain
6:44 PM 62.6 °F 60.8 °F 94% 29.97 in 4.0 mi WNW 4.6 mph - N/A Rain Light Rain
6:46 PM 62.6 °F 60.8 °F 94% 29.98 in 4.0 mi Calm Calm - N/A Rain Light Rain
6:48 PM 62.6 °F 60.8 °F 94% 29.98 in 4.0 mi WNW 3.5 mph - N/A Rain Light Rain
6:49 PM 62.6 °F 60.8 °F 94% 29.98 in 4.0 mi WNW 3.5 mph - N/A Rain Light Rain
6:53 PM 62.6 °F 62.6 °F 100% 29.98 in 4.0 mi Calm Calm - N/A Rain Light Rain
6:55 PM 62.8 °F 61.9 °F 97% 29.98 in 4.0 mi Calm Calm - 0.02 in Rain Light Rain
7:04 PM 62.6 °F 62.6 °F 100% 29.98 in 4.0 mi Calm Calm - N/A Rain Light Rain
7:10 PM 62.6 °F 62.6 °F 100% 29.98 in 5.0 mi Calm Calm - N/A   Overcast
7:23 PM 62.6 °F 62.6 °F 100% 29.99 in 5.0 mi WSW 3.5 mph - N/A Rain Light Rain
7:30 PM 62.6 °F 62.6 °F 100% 29.99 in 4.0 mi Calm Calm - N/A Rain Light Rain
7:32 PM 62.6 °F 62.6 °F 100% 29.99 in 4.0 mi Calm Calm - N/A Rain Light Rain
7:40 PM 62.6 °F 62.6 °F 100% 29.99 in 5.0 mi Calm Calm - N/A   Overcast
7:53 PM 62.6 °F 62.6 °F 100% 29.99 in 5.0 mi SW 3.5 mph - N/A   Overcast
7:55 PM 63.1 °F 62.4 °F 97% 29.99 in 5.0 mi SW 3.5 mph - 0.01 in   Overcast
8:00 PM 62.6 °F 62.6 °F 100% 29.99 in 5.0 mi West 3.5 mph - N/A   Overcast
8:02 PM 62.6 °F 62.6 °F 100% 30.00 in 5.0 mi Variable 5.8 mph - N/A   Overcast
8:03 PM 62.6 °F 62.6 °F 100% 30.00 in 6.0 mi NNW 10.4 mph - N/A   Overcast
8:04 PM 62.6 °F 62.6 °F 100% 30.00 in 6.0 mi NNW 12.7 mph - N/A   Overcast
8:09 PM 62.6 °F 60.8 °F 94% 30.01 in 8.0 mi NNW 13.8 mph 19.6 mph N/A   Overcast
8:10 PM 62.6 °F 60.8 °F 94% 30.01 in 8.0 mi NNW 15.0 mph 19.6 mph N/A Rain Light Rain
8:12 PM 62.6 °F 60.8 °F 94% 30.01 in 10.0 mi NNW 13.8 mph 19.6 mph N/A Rain Light Rain
8:19 PM 60.8 °F 60.8 °F 100% 30.01 in 9.0 mi NNW 15.0 mph 23.0 mph N/A Rain Light Rain
8:26 PM 60.8 °F 59.0 °F 94% 30.01 in 7.0 mi North 18.4 mph - N/A Rain Rain
8:31 PM 59.0 °F 59.0 °F 100% 30.01 in 8.0 mi North 18.4 mph - N/A Rain Light Rain
8:38 PM 59.0 °F 59.0 °F 100% 30.02 in 10.0 mi North 15.0 mph - N/A Rain Light Rain
8:52 PM 59.0 °F 57.2 °F 94% 30.03 in 10.0 mi NNW 12.7 mph - N/A   Overcast
8:55 PM 58.5 °F 57.4 °F 96% 30.03 in 10.0 mi North 15.0 mph - 0.05 in   Overcast
9:25 PM 57.2 °F 55.4 °F 94% 30.03 in 10.0 mi North 11.5 mph - N/A   Overcast
9:55 PM 57.0 °F 55.0 °F 93% 30.04 in 10.0 mi North 12.7 mph - N/A   Overcast
10:37 PM 57.2 °F 53.6 °F 88% 30.04 in 10.0 mi North 10.4 mph 18.4 mph N/A   Overcast
10:41 PM 57.2 °F 53.6 °F 88% 30.05 in 10.0 mi North 12.7 mph - N/A   Overcast
10:55 PM 56.5 °F 54.1 °F 92% 30.04 in 10.0 mi NNE 13.8 mph - N/A   Overcast
11:12 PM 57.2 °F 53.6 °F 88% 30.04 in 10.0 mi North 10.4 mph - N/A   Overcast
11:19 PM 55.4 °F 53.6 °F 94% 30.04 in 10.0 mi NNE 13.8 mph - N/A   Overcast
11:36 PM 57.2 °F 53.6 °F 88% 30.04 in 10.0 mi NNE 12.7 mph 20.7 mph N/A   Overcast
11:40 PM 57.2 °F 53.6 °F 88% 30.04 in 10.0 mi North 12.7 mph - N/A   Overcast
11:45 PM 55.4 °F 53.6 °F 94% 30.04 in 10.0 mi NNE 12.7 mph - N/A   Overcast
11:55 PM 56.1 °F 53.6 °F 91% 30.03 in 10.0 mi North 9.2 mph - N/A   Overcast